�������l�o���
Date,Time,MP-1(��Sv/h),MP-2(��Sv/h),MP-3(��Sv/h),MP-4(��Sv/h),MP-5(��Sv/h),MP-6(��Sv/h),MP-7(��Sv/h),MP-8(��Sv/h),����,����(m/s),���J
2013/09/05,00:00,2.8,5.0,5.8,5.1,5.4,2.9,3.2,3.2,��쐼,9.0,��
2013/09/05,00:10,2.8,5.0,5.8,5.1,5.4,2.9,3.2,3.2,��,8.8,��
2013/09/05,00:20,2.8,5.0,5.8,5.1,5.4,2.9,3.2,3.2,��,9.3,��
2013/09/05,00:30,2.8,5.0,5.8,5.1,5.4,2.9,3.2,3.2,��쐼,8.2,��
2013/09/05,00:40,2.8,5.0,5.8,5.1,5.4,2.9,3.2,3.2,��,8.8,��
2013/09/05,00:50,2.8,5.0,5.8,5.1,5.4,2.9,3.2,3.2,��,7.2,��
2013/09/05,01:00,2.8,5.0,5.8,5.1,5.4,2.9,3.2,3.2,��,6.1,��
2013/09/05,01:10,2.8,5.0,5.8,5.1,5.4,2.9,3.2,3.2,��,6.4,��
2013/09/05,01:20,2.8,5.0,5.8,5.1,5.4,2.9,3.2,3.2,��,6.5,��
2013/09/05,01:30,2.8,5.0,5.8,5.1,5.4,2.9,3.2,3.2,��쓌,6.6,��
2013/09/05,01:40,2.8,5.0,5.8,5.1,5.4,2.9,3.2,3.2,��쓌,6.5,��
2013/09/05,01:50,2.8,5.0,5.8,5.1,5.4,2.9,3.2,3.2,��쓌,4.9,��
2013/09/05,02:00,2.8,5.0,5.8,5.1,5.4,2.9,3.2,3.2,��,4.9,��
2013/09/05,02:10,2.8,5.0,5.8,5.1,5.4,2.9,3.2,3.2,��,4.7,��
2013/09/05,02:20,2.8,5.0,5.8,5.1,5.4,2.9,3.2,3.2,��,5.1,��
2013/09/05,02:30,2.8,5.0,5.8,5.1,5.4,2.9,3.2,3.2,��,3.7,��
2013/09/05,02:40,2.8,5.0,5.8,5.1,5.4,2.9,3.2,3.2,��,4.2,��
2013/09/05,02:50,2.8,5.0,5.8,5.1,5.4,2.9,3.2,3.2,��쐼,2.3,��
2013/09/05,03:00,2.8,5.0,5.8,5.1,5.4,2.9,3.2,3.2,��,1.8,��
2013/09/05,03:10,2.8,5.0,5.8,5.1,5.4,2.9,3.2,3.2,��쓌,2.8,��
2013/09/05,03:20,2.8,5.0,5.8,5.1,5.4,2.9,3.2,3.2,��쓌,4.1,��
2013/09/05,03:30,2.8,5.0,5.8,5.1,5.4,2.9,3.2,3.2,��쓌,5.2,��
2013/09/05,03:40,2.8,5.0,5.8,5.1,5.4,2.9,3.2,3.2,��,5.5,��
2013/09/05,03:50,2.8,5.0,5.8,5.1,5.4,2.9,3.2,3.2,��,5.3,��
2013/09/05,04:00,2.8,5.0,5.8,5.1,5.4,2.9,3.2,3.2,��쐼,5.0,��
2013/09/05,04:10,2.8,5.0,5.8,5.1,5.4,2.9,3.2,3.2,��,5.0,��
2013/09/05,04:20,2.8,5.0,5.8,5.1,5.4,2.9,3.2,3.2,��,6.5,��
2013/09/05,04:30,2.8,5.0,5.8,5.1,5.4,2.9,3.2,3.2,��,6.9,��
2013/09/05,04:40,2.8,5.0,5.8,5.1,5.4,2.9,3.2,3.2,��,7.9,��
2013/09/05,04:50,2.8,5.0,5.8,5.1,5.4,2.9,3.2,3.2,��,7.4,��
2013/09/05,05:00,2.8,5.0,5.8,5.1,5.4,2.9,3.2,3.2,��,7.4,��
2013/09/05,05:10,2.8,5.0,5.8,5.1,5.4,2.9,3.2,3.2,��,7.7,��
2013/09/05,05:20,2.8,5.0,5.8,5.1,5.4,2.9,3.2,3.2,��,8.2,��
2013/09/05,05:30,2.8,5.0,5.8,5.1,5.4,2.9,3.2,3.2,��,6.1,��
2013/09/05,05:40,2.8,5.0,5.8,5.1,5.4,2.9,3.2,3.2,��,5.1,��
2013/09/05,05:50,2.8,5.0,5.8,5.1,5.4,2.9,3.2,3.2,��,3.6,��
2013/09/05,06:00,2.8,5.0,5.8,5.1,5.4,2.9,3.2,3.2,��쐼,3.5,�L
2013/09/05,06:10,2.8,4.9,5.7,5.1,5.4,2.8,3.2,3.2,��쐼,3.6,�L
2013/09/05,06:20,2.8,4.8,5.7,5.0,5.3,2.8,3.2,3.2,��,4.5,��
2013/09/05,06:30,2.8,4.8,5.7,5.0,5.3,2.8,3.2,3.2,��,4.3,�L
2013/09/05,06:40,2.8,4.8,5.7,5.0,5.3,2.8,3.2,3.2,��,3.5,�L
2013/09/05,06:50,2.8,4.8,5.7,5.0,5.3,2.8,3.2,3.2,��쐼,3.5,�L
2013/09/05,07:00,2.8,4.8,5.7,5.0,5.3,2.8,3.2,3.2,��쐼,3.8,�L
2013/09/05,07:10,2.8,4.8,5.7,5.0,5.3,2.8,3.2,3.2,��,3.7,��
2013/09/05,07:20,2.8,4.8,5.7,5.0,5.3,2.8,3.2,3.2,��,3.2,��
2013/09/05,07:30,2.8,4.8,5.7,5.0,5.3,2.8,3.2,3.2,��,3.4,��
2013/09/05,07:40,2.8,4.9,5.7,5.0,5.3,2.8,3.2,3.2,��,4.0,�L
2013/09/05,07:50,2.8,4.9,5.7,5.0,5.3,2.8,3.2,3.2,��,4.7,��
2013/09/05,08:00,2.8,4.9,5.7,5.0,5.3,2.8,3.2,3.2,��,3.7,�L
2013/09/05,08:10,2.8,4.9,5.7,5.0,5.3,2.8,3.2,3.2,��,3.0,�L
2013/09/05,08:20,2.8,4.8,5.7,5.0,5.3,2.8,3.2,3.2,��,1.6,�L
2013/09/05,08:30,2.8,4.8,5.7,5.0,5.3,2.8,3.2,3.2,��쐼,0.8,�L
2013/09/05,08:40,2.8,4.8,5.7,5.0,5.3,2.8,3.2,3.2,-,CALM,�L
2013/09/05,08:50,2.8,4.8,5.7,5.0,5.3,2.8,3.2,3.2,-,CALM,�L
2013/09/05,09:00,2.8,4.8,5.7,5.0,5.3,2.8,3.2,3.2,�k�k��,1.0,�L
2013/09/05,09:10,2.8,4.8,5.7,-,5.3,2.8,3.2,3.2,���k��,1.1,�L
2013/09/05,09:20,2.8,4.8,5.7,-,5.3,2.8,3.2,3.2,���k��,1.7,��
2013/09/05,09:30,2.8,4.8,5.7,-,5.3,2.8,3.2,3.2,�k��,1.6,��
2013/09/05,09:40,2.8,4.8,5.7,-,5.3,2.8,3.2,3.2,�k��,2.1,��
2013/09/05,09:50,2.8,4.9,5.7,-,5.3,2.8,3.2,3.2,�k�k��,1.7,��
2013/09/05,10:00,2.8,4.9,5.7,-,5.3,2.8,3.2,3.2,�k�k��,1.7,��
2013/09/05,10:10,2.8,4.9,5.7,-,5.3,2.8,3.2,3.2,�k�k��,2.1,��
2013/09/05,10:20,2.8,4.9,5.7,-,5.3,2.8,3.2,3.2,�k�k��,2.5,�L
2013/09/05,10:30,2.8,4.9,5.7,-,5.3,2.8,3.2,3.2,�k�k��,1.5,�L
2013/09/05,10:40,2.8,4.9,5.7,-,5.3,2.8,3.2,3.2,�k,2.0,�L
2013/09/05,10:50,2.8,4.9,5.7,-,5.3,2.8,3.2,3.2,�k,1.6,�L
2013/09/05,11:00,2.8,4.9,5.7,-,5.3,2.8,3.2,3.2,���k��,1.3,�L
2013/09/05,11:10,2.8,4.8,5.7,-,5.3,2.8,3.2,3.2,�k�k��,1.3,�L
2013/09/05,11:20,2.8,4.8,5.6,-,5.3,2.8,3.2,3.2,�k��,1.8,�L
2013/09/05,11:30,2.8,4.8,5.6,-,5.3,2.8,3.2,3.2,�k,2.8,�L
2013/09/05,11:40,2.8,4.8,5.6,-,5.3,2.8,3.2,3.2,�k�k��,2.3,�L
2013/09/05,11:50,2.8,4.8,5.6,-,5.3,2.8,3.2,3.2,�k,2.7,�L
2013/09/05,12:00,2.8,4.8,5.6,-,5.3,2.8,3.2,3.2,�k,2.7,�L
2013/09/05,12:10,2.8,4.8,5.6,-,5.3,2.8,3.2,3.2,�k,3.0,�L
2013/09/05,12:20,2.8,4.8,5.6,-,5.3,2.8,3.2,3.2,�k,3.2,�L
2013/09/05,12:30,2.8,4.8,5.6,-,5.3,2.8,3.2,3.2,�k,3.1,�L
2013/09/05,12:40,2.8,4.8,5.6,-,5.3,2.8,3.2,3.2,�k,2.7,�L
2013/09/05,12:50,2.8,4.8,5.6,-,5.3,2.8,3.2,3.2,�k,2.2,�L
2013/09/05,13:00,2.8,4.8,5.6,-,5.3,2.8,3.2,3.2,�k,1.5,�L
2013/09/05,13:10,2.8,4.8,5.6,-,5.3,2.8,3.2,3.2,�k�k��,1.9,��
2013/09/05,13:20,2.8,4.8,5.6,-,5.3,2.8,3.2,3.2,�k�k��,2.3,��
2013/09/05,13:30,2.8,4.8,5.6,-,5.3,2.8,3.2,3.2,�k�k��,2.1,��
2013/09/05,13:40,2.8,4.8,5.7,-,5.3,2.8,3.2,3.2,�k�k��,2.0,��
2013/09/05,13:50,2.8,4.8,5.7,-,5.3,2.8,3.2,3.2,�k,2.4,��
2013/09/05,14:00,2.8,4.8,5.7,-,5.3,2.8,3.2,3.2,�k,2.0,��
2013/09/05,14:10,2.8,4.8,5.7,-,5.3,2.8,3.2,3.2,�k�k��,1.9,��
2013/09/05,14:20,2.8,4.9,5.7,-,5.3,2.8,3.2,3.2,�k,1.5,��
2013/09/05,14:30,2.8,4.9,5.7,-,5.3,2.8,3.2,3.2,�k,1.1,��
2013/09/05,14:40,2.8,4.9,5.7,-,5.3,2.8,3.2,3.2,�k,0.7,��
2013/09/05,14:50,2.8,4.9,5.7,-,5.3,2.8,3.2,3.2,�k,0.7,��
2013/09/05,15:00,2.8,4.9,5.7,5.0,5.3,2.8,3.2,3.2,�k�k��,1.2,��
2013/09/05,15:10,2.8,4.9,5.7,5.0,5.3,2.8,3.2,3.2,�k��,1.5,��
2013/09/05,15:20,2.8,4.9,5.7,5.0,5.3,2.8,3.2,3.2,�k��,2.6,��
2013/09/05,15:30,2.8,4.9,5.7,5.0,5.3,2.8,3.2,3.2,�k�k��,3.5,��
2013/09/05,15:40,2.8,4.9,5.7,5.0,5.3,2.8,3.2,3.2,�k�k��,3.9,��
2013/09/05,15:50,2.8,4.9,5.7,5.0,5.3,2.8,3.2,3.2,�k�k��,3.5,��
2013/09/05,16:00,2.8,4.9,5.7,5.0,5.3,2.8,3.2,3.2,�k�k��,3.5,��
2013/09/05,16:10,2.8,4.9,5.7,5.0,5.3,2.8,3.2,3.2,�k�k��,4.0,��
2013/09/05,16:20,2.8,4.9,5.7,5.0,5.3,2.8,3.2,3.2,�k�k��,4.0,��
2013/09/05,16:30,2.8,4.9,5.7,5.0,5.3,2.8,3.2,3.2,�k�k��,3.9,��
2013/09/05,16:40,2.8,4.9,5.7,5.0,5.3,2.8,3.2,3.2,�k,3.3,��
2013/09/05,16:50,2.8,4.9,5.7,5.0,5.3,2.8,3.2,3.2,�k,2.9,��
2013/09/05,17:00,2.8,4.9,5.7,5.0,5.3,2.8,3.2,3.2,�k,2.1,��
2013/09/05,17:10,2.8,4.9,5.7,5.0,5.3,2.8,3.2,3.2,�k,1.7,��
2013/09/05,17:20,2.8,4.9,5.7,5.0,5.3,2.8,3.2,3.2,�k,1.3,��
2013/09/05,17:30,2.8,4.9,5.7,5.0,5.3,2.8,3.2,3.2,�k��,1.0,�L
2013/09/05,17:40,2.8,4.9,5.7,5.0,5.3,2.8,3.2,3.2,�k�k��,0.6,��
2013/09/05,17:50,2.8,4.9,5.7,5.0,5.3,2.8,3.2,3.2,�k�k��,1.1,��
2013/09/05,18:00,2.8,4.9,5.7,5.0,5.3,2.8,3.2,3.2,�k�k��,1.2,��
2013/09/05,18:10,2.8,4.9,5.7,5.0,5.3,2.8,3.2,3.2,�k,1.2,��
2013/09/05,18:20,2.8,4.9,5.7,5.0,5.3,2.8,3.2,3.2,�k,1.3,��
2013/09/05,18:30,2.8,4.9,5.7,5.0,5.3,2.8,3.2,3.2,�k,0.9,��
2013/09/05,18:40,2.8,4.9,5.7,5.0,5.3,2.8,3.2,3.2,�k�k��,0.9,��
2013/09/05,18:50,2.8,4.9,5.7,5.0,5.3,2.8,3.2,3.2,�k,0.7,��
2013/09/05,19:00,2.8,4.9,5.7,5.0,5.3,2.8,3.2,3.2,-,CALM,��
2013/09/05,19:10,2.8,4.9,5.7,5.0,5.3,2.8,3.2,3.2,-,CALM,��
2013/09/05,19:20,2.8,4.9,5.7,5.0,5.3,2.8,3.2,3.2,-,CALM,��
2013/09/05,19:30,2.8,4.9,5.7,5.0,5.3,2.8,3.2,3.2,�k,0.8,��
2013/09/05,19:40,2.8,4.9,5.7,5.0,5.3,2.8,3.2,3.2,�k�k��,1.6,��
2013/09/05,19:50,2.8,4.9,5.7,5.0,5.3,2.8,3.2,3.2,�k,2.3,��
2013/09/05,20:00,2.8,4.9,5.7,5.0,5.3,2.8,3.2,3.2,�k,2.9,��
2013/09/05,20:10,2.8,4.9,5.7,5.0,5.3,2.8,3.2,3.2,�k,3.4,��
2013/09/05,20:20,2.8,4.9,5.7,5.0,5.3,2.8,3.2,3.2,�k,4.0,��
2013/09/05,20:30,2.8,4.9,5.7,5.0,5.3,2.8,3.2,3.2,�k,4.9,��
2013/09/05,20:40,2.8,4.9,5.7,5.0,5.3,2.8,3.2,3.2,�k,4.9,��
2013/09/05,20:50,2.8,4.9,5.7,5.0,5.3,2.8,3.2,3.2,�k,4.9,��
2013/09/05,21:00,2.8,4.9,5.7,5.0,5.3,2.8,3.2,3.2,�k,5.2,��
2013/09/05,21:10,2.8,4.9,5.7,5.0,5.3,2.8,3.2,3.2,�k,5.3,��
2013/09/05,21:20,2.8,4.9,5.7,5.0,5.3,2.8,3.2,3.2,�k,5.8,��
2013/09/05,21:30,2.8,4.9,5.7,5.1,5.3,2.8,3.2,3.2,�k,6.0,�L
2013/09/05,21:40,2.8,4.9,5.7,5.1,5.3,2.8,3.2,3.2,�k,5.7,��
2013/09/05,21:50,2.8,4.9,5.7,5.0,5.3,2.8,3.2,3.2,�k,5.7,��
2013/09/05,22:00,2.8,4.9,5.7,5.0,5.3,2.8,3.2,3.2,�k,5.0,�L
2013/09/05,22:10,2.8,4.9,5.7,5.0,5.3,2.8,3.2,3.2,�k,5.6,��
2013/09/05,22:20,2.8,4.9,5.7,5.0,5.3,2.8,3.2,3.2,�k,5.8,��
2013/09/05,22:30,2.8,4.9,5.7,5.0,5.3,2.8,3.2,3.2,�k,6.2,��
2013/09/05,22:40,2.8,4.9,5.7,5.0,5.3,2.8,3.2,3.2,�k,7.5,��
2013/09/05,22:50,2.8,4.9,5.7,5.0,5.3,2.8,3.2,3.2,�k,6.5,��
2013/09/05,23:00,2.8,4.9,5.7,5.0,5.3,2.8,3.2,3.2,�k,6.5,��
2013/09/05,23:10,2.8,4.9,5.7,5.0,5.3,2.8,3.2,3.2,�k,5.8,��
2013/09/05,23:20,2.8,4.9,5.7,5.0,5.3,2.8,3.2,3.2,�k,5.5,��
2013/09/05,23:30,2.8,4.9,5.7,5.1,5.3,2.8,3.2,3.2,�k,4.7,��
2013/09/05,23:40,2.8,4.9,5.7,5.0,5.3,2.8,3.2,3.2,�k,5.3,��
2013/09/05,23:50,2.8,4.9,5.7,5.0,5.3,2.8,3.2,3.2,�k,5.2,��
